Погода в Куземкине

Россия / Пензенская область     53°22′44″N   42°51′32″E
темп.,
°C
ветер,
м/с
пор.,
м/с
влажн.,
%
обл.,
%
осадки,
мм/ч
давл.,
гПа
погр.,
м
11 апреля, вс
вс1100:00+2с3692100 0.0 1026126
03:00+1с499016 0.0 1027199
06:00+1ссв4108624 0.0 1028226
09:00+6ссв6959100 0.0 1029442
12:00+10св6844100 0.0 1029747
15:00+12ссв6842100 0.0 1029925
18:00+10св61057100 0.0 1030630
21:00+7св51284100 0.8 1030436
12 апреля, пн
пн1200:00+6св51290100 0.4 1030420
03:00+5св51194100 0.4 1031319
06:00+5всв51196100 0.0 1030337
09:00+9всв6980100 0.0 1030417
12:00+15в6761100 0.0 1029652
15:00+19вюв574887 0.0 1028981
18:00+17вюв495543 0.0 1028183
21:00+12юв412715 0.0 1029185
13 апреля, вт
вт1300:00+11юв4127999 0.0 1029187
03:00+9юв41082100 0.0 1029158
06:00+8юв4117499 0.0 1029177
09:00+13юв6105364 0.0 1029378
12:00+18ююв693736 0.0 1028930
15:00+20ююв683232 0.0 10271826
18:00+17ююв364413 0.0 1026105
21:00+12юв410570 0.0 1027174
14 апреля, ср
ср1400:00+10юв36630 0.0 102781
03:00+8юв33665 0.0 102639
06:00+7юв36711 0.0 102684
09:00+13юв585433 0.0 1025335
12:00+17юв5639100 0.0 10241035
15:00+19юв563396 0.0 10221451
18:00+17вюв364567 0.0 1021130
21:00+12юв475699 0.0 1021110
15 апреля, чт
чт1500:00+11юв3462100 0.0 102152
03:00+9юв3464100 0.0 102060
06:00+8юв356752 0.0 101986
09:00+13юв465296 0.0 1018304
12:00+18юв4538100 0.0 10171240
15:00+19юв44325 0.0 10151799
18:00+17в2345100 0.0 101348
21:00+14в3655100 0.0 1013117